Date String (YYYY-MM-DD hh:mm:ss) UTC,Instrument flags,Ambient pressure (hPa),Sample flow (lpm),Bypass flow (lpm),Sample temperature (°C),Ambient temperature (°C),ASC tube jacket temperature (°C),LED temperature (°C),Box temperature (°C),Sample RH (%),Span deviation,Mass concentration (μg/m³),Mass concentration (μg/m³),Mass concentration (μg/m³)
DateTimeUTC,F1_M11,P_M11,Q1_M11,Q2_M11,T1_M11,T2_M11,T3_M11,T4_M11,T5_M11,U1_M11,ZSPAN_M11,X0_M11,X2_M11,X1_M11
2022-11-27 18:00:00,,0820.4,5.01,0.00,22.9,21.9,00.0,31.7,24.9,19.6,-000.4,0013.16,0009.17,0008.64
2022-11-27 18:01:00,,0820.4,5.02,0.00,22.9,21.9,00.0,31.7,24.9,20.1,-000.5,0013.16,0009.21,0008.67
2022-11-27 18:02:00,,0820.4,5.00,0.00,23.0,21.9,00.0,31.8,24.9,20.1,-000.7,0013.29,0009.26,0008.67
2022-11-27 18:03:00,,0820.3,4.99,0.00,23.0,21.9,00.0,31.8,24.9,19.9,-000.4,0013.59,0009.25,0008.68
2022-11-27 18:04:00,,0820.3,5.01,0.00,23.0,21.9,00.0,31.8,24.9,19.5,-000.1,0013.27,0009.27,0008.70
2022-11-27 18:05:00,,0820.3,5.02,0.00,23.0,21.9,00.0,31.8,24.9,19.4,0000.1,0013.54,0009.34,0008.72
2022-11-27 18:06:00,,0820.2,4.98,0.00,23.0,22.0,00.0,31.8,24.9,19.5,0000.3,0013.74,0009.40,0008.72
2022-11-27 18:07:00,,0820.2,5.00,0.00,23.0,22.0,00.0,31.8,25.0,19.4,0000.3,0013.78,0009.45,0008.72
2022-11-27 18:08:00,,0820.2,5.00,0.00,23.0,22.0,00.0,31.8,25.0,19.6,0000.7,0014.31,0009.49,0008.74
2022-11-27 18:09:00,,0820.2,5.02,0.00,23.1,22.0,00.0,31.9,25.0,19.5,0000.6,0014.31,0009.51,0008.75
2022-11-27 18:10:00,,0820.2,4.98,0.00,23.1,22.0,00.0,31.9,25.0,19.6,0000.2,0014.96,0009.52,0008.77
2022-11-27 18:11:00,,0820.2,4.99,0.00,23.1,22.0,00.0,31.9,25.0,19.5,0000.3,0015.86,0009.56,0008.79
2022-11-27 18:12:00,,0820.2,5.01,0.00,23.1,22.1,00.0,31.9,25.1,19.2,0000.5,0016.06,0009.58,0008.79
2022-11-27 18:13:00,,0820.1,5.01,0.00,23.1,22.1,00.0,31.9,25.1,19.4,0000.5,0016.02,0009.57,0008.79
2022-11-27 18:14:00,,0820.1,4.98,0.00,23.1,22.1,00.0,31.9,25.0,19.4,0000.6,0015.59,0009.61,0008.80
2022-11-27 18:15:00,,0820.1,5.02,0.00,23.1,22.1,00.0,31.9,25.1,19.6,0000.5,0015.39,0009.60,0008.80
2022-11-27 18:16:00,,0820.0,4.99,0.00,23.2,22.1,00.0,32.0,25.1,19.4,0000.5,0015.49,0009.59,0008.79
2022-11-27 18:17:00,,0820.0,5.01,0.00,23.2,22.2,00.0,32.0,25.1,19.3,0000.3,0015.54,0009.55,0008.78
2022-11-27 18:18:00,,0819.9,5.01,0.00,23.2,22.2,00.0,32.0,25.1,19.1,0000.0,0015.83,0009.52,0008.79
2022-11-27 18:19:00,,0819.9,4.98,0.00,23.2,22.2,00.0,32.0,25.2,19.2,-000.3,0015.60,0009.50,0008.79
2022-11-27 18:20:00,,0819.9,5.02,0.00,23.2,22.2,00.0,32.0,25.1,19.1,-000.2,0015.70,0009.51,0008.79
2022-11-27 18:21:00,,0819.9,4.98,0.00,23.2,22.2,00.0,32.0,25.2,19.0,-000.4,0015.96,0009.55,0008.79
2022-11-27 18:22:00,,0819.8,5.02,0.00,23.3,22.2,00.0,32.0,25.1,19.1,-000.8,0015.03,0009.53,0008.78
2022-11-27 18:23:00,,0819.8,4.99,0.00,23.3,22.2,00.0,32.1,25.1,19.3,-001.3,0014.74,0009.50,0008.78
2022-11-27 18:24:00,,0819.7,5.00,0.00,23.3,22.3,00.0,32.1,25.2,19.1,-001.5,0014.79,0009.50,0008.81
2022-11-27 18:25:00,,0819.8,5.01,0.00,23.3,22.3,00.0,32.1,25.3,19.4,-001.5,0014.90,0009.50,0008.83
2022-11-27 18:26:00,,0819.7,4.99,0.00,23.3,22.3,00.0,32.1,25.3,19.1,-001.5,0015.00,0009.52,0008.86
2022-11-27 18:27:00,,0819.7,5.00,0.00,23.4,22.3,00.0,32.1,25.3,18.9,-001.6,0014.78,0009.51,0008.87
2022-11-27 18:28:00,,0819.7,5.00,0.00,23.4,22.4,00.0,32.1,25.3,19.1,-001.6,0014.85,0009.52,0008.89
2022-11-27 18:29:00,,0819.7,4.99,0.00,23.4,22.4,00.0,32.2,25.3,19.1,-001.4,0014.98,0009.55,0008.89
2022-11-27 18:30:00,,0819.6,5.01,0.00,23.4,22.4,00.0,32.2,25.3,19.1,-001.5,0014.94,0009.58,0008.88
2022-11-27 18:31:00,,0819.6,4.99,0.00,23.4,22.4,00.0,32.2,25.3,18.8,-001.8,0015.50,0009.61,0008.88
2022-11-27 18:32:00,,0819.6,5.00,0.00,23.4,22.5,00.0,32.2,25.3,19.0,-001.2,0015.03,0009.55,0008.89
2022-11-27 18:33:00,,0819.5,5.00,0.00,23.5,22.5,00.0,32.2,25.3,19.0,-000.6,0015.23,0009.55,0008.90
2022-11-27 18:34:00,,0819.5,4.99,0.00,23.5,22.5,00.0,32.2,25.4,18.9,-000.1,0015.35,0009.58,0008.91
2022-11-27 18:35:00,,0819.5,5.01,0.00,23.5,22.5,00.0,32.3,25.4,18.9,-000.1,0015.60,0009.61,0008.92
2022-11-27 18:36:00,,0819.5,4.99,0.00,23.5,22.5,00.0,32.3,25.4,18.8,-000.0,0015.79,0009.59,0008.90
2022-11-27 18:37:00,,0819.4,5.01,0.00,23.5,22.6,00.0,32.3,25.5,18.7,-000.0,0016.87,0009.59,0008.88
2022-11-27 18:38:00,,0819.4,4.99,0.00,23.6,22.6,00.0,32.3,25.5,18.9,0000.4,0016.93,0009.60,0008.88
2022-11-27 18:39:00,,0819.4,4.99,0.00,23.6,22.6,00.0,32.4,25.5,18.7,0000.4,0016.85,0009.60,0008.89
2022-11-27 18:40:00,,0819.3,5.00,0.00,23.6,22.6,00.0,32.4,25.5,18.5,0000.4,0016.29,0009.61,0008.89
2022-11-27 18:41:00,,0819.2,5.01,0.00,23.6,22.6,00.0,32.4,25.5,18.5,0000.7,0016.20,0009.59,0008.89
2022-11-27 18:42:00,,0819.2,5.00,0.00,23.6,22.6,00.0,32.4,25.5,18.6,0001.2,0015.56,0009.57,0008.90
2022-11-27 18:43:00,,0819.3,5.00,0.00,23.6,22.7,00.0,32.4,25.5,19.0,0001.2,0015.19,0009.53,0008.87
2022-11-27 18:44:00,,0819.2,5.00,0.00,23.7,22.7,00.0,32.4,25.5,18.6,0000.5,0014.82,0009.47,0008.83
2022-11-27 18:45:00,,0819.3,5.00,0.00,23.7,22.7,00.0,32.5,25.5,18.4,-000.1,0014.56,0009.40,0008.78
2022-11-27 18:46:00,,0819.3,5.00,0.00,23.7,22.7,00.0,32.5,25.6,18.4,-000.2,0014.22,0009.32,0008.74
2022-11-27 18:47:00,,0819.3,5.00,0.00,23.7,22.8,00.0,32.5,25.6,18.5,-000.6,0014.47,0009.31,0008.72
2022-11-27 18:48:00,,0819.3,5.00,0.00,23.8,22.8,00.0,32.5,25.6,18.6,-000.8,0013.56,0009.31,0008.72
2022-11-27 18:49:00,,0819.3,4.99,0.00,23.8,22.8,00.0,32.5,25.6,18.9,-001.2,0013.39,0009.24,0008.64
2022-11-27 18:50:00,,0819.3,5.00,0.00,23.8,22.9,00.0,32.6,25.7,18.8,-000.9,0013.83,0009.14,0008.55
2022-11-27 18:51:00,,0819.3,5.00,0.00,23.8,22.9,00.0,32.6,25.7,18.6,-000.9,0013.82,0008.99,0008.47
2022-11-27 18:52:00,,0819.2,4.99,0.00,23.8,22.9,00.0,32.6,25.7,18.4,-001.1,0014.14,0008.95,0008.40
2022-11-27 18:53:00,,0819.2,5.01,0.00,23.9,22.9,00.0,32.6,25.7,18.4,-001.5,0014.54,0008.87,0008.33
2022-11-27 18:54:00,,0819.2,5.00,0.00,23.9,22.9,00.0,32.6,25.8,18.4,-001.9,0014.37,0008.81,0008.27
2022-11-27 18:55:00,,0819.2,4.98,0.00,23.9,22.9,00.0,32.7,25.8,18.4,-001.3,0014.26,0008.77,0008.23
2022-11-27 18:56:00,,0819.2,5.01,0.00,23.9,22.9,00.0,32.7,25.9,18.4,-001.1,0014.19,0008.72,0008.19
2022-11-27 18:57:00,,0819.1,5.00,0.00,23.9,22.9,00.0,32.7,25.9,18.2,-000.8,0014.54,0008.70,0008.15
2022-11-27 18:58:00,,0819.1,5.01,0.00,23.9,23.0,00.0,32.7,25.9,18.1,-001.0,0014.34,0008.65,0008.09
2022-11-27 18:59:00,,0819.2,5.00,0.00,24.0,23.0,00.0,32.7,25.9,18.1,-000.9,0014.46,0008.56,0008.02
